Location: Oshawa
(43.9000°N, 78.8670°W)
Time: 05:42:06
(UTC-04:00)

Thor Agena Rocket - Visible Passes

Search period start: 02 April 2015 00:00
Search period end: 12 April 2015 00:00
Orbit: 760 x 809 km, 99.0° (Epoch: 01 April)

Date Brightness Start Highest point End Pass type
(mag) Time Alt. Az. Time Alt. Az. Time Alt. Az.
02 Apr 5.8 02:21:57 21° NNE 02:21:57 21° NNE 02:24:00 10° N visible
02 Apr 5.7 04:02:33 14° NW 04:02:33 14° NW 04:03:25 10° NNW visible
03 Apr 6.1 01:50:21 16° NE 01:50:21 16° NE 01:52:10 10° NNE visible
03 Apr 5.4 03:30:57 22° NNW 03:30:57 22° NNW 03:32:43 10° NNW visible
04 Apr 5.3 02:59:21 27° N 02:59:21 27° N 03:01:40 10° N visible
05 Apr 5.5 02:27:45 25° NNE 02:27:45 25° NNE 02:30:19 10° N visible
05 Apr 5.6 04:08:21 16° NW 04:08:21 16° NW 04:09:31 10° NW visible
06 Apr 5.9 01:56:09 18° NE 01:56:09 18° NE 01:58:35 10° NNE visible
06 Apr 5.2 03:36:45 25° NNW 03:36:45 25° NNW 03:38:54 10° NNW visible
07 Apr 6.3 01:24:33 11° NE 01:24:33 11° NE 01:25:43 10° NE visible
07 Apr 5.0 03:05:09 32° N 03:05:09 32° N 03:07:54 10° N visible
08 Apr 5.2 02:33:32 30° NNE 02:33:32 30° NNE 02:36:36 10° N visible
08 Apr 5.4 04:14:08 17° NW 04:14:08 17° NW 04:15:36 10° NW visible
09 Apr 5.7 02:01:56 21° NE 02:01:56 21° NE 02:04:57 10° NNE visible
09 Apr 4.9 03:42:32 28° NW 03:42:32 28° NW 03:45:04 10° NNW visible
10 Apr 6.1 01:30:20 12° ENE 01:30:20 12° ENE 01:32:30 10° NNE visible
10 Apr 4.6 03:10:56 39° N 03:10:56 39° N 03:14:07 10° NNW visible
11 Apr 4.9 02:39:20 36° NNE 02:39:20 36° NNE 02:42:53 10° N visible
11 Apr 5.3 04:19:56 18° NW 04:19:56 18° NW 04:21:40 10° NW visible
